OV1-9 R/B, 2622

Orbit data source: Space-Track

OV1-9 R/B, 2622 is space debris in LEO originally from a launch on Sun, 11 Dec 1966 UTC launched from the Air Force Western Test Range (AFWTR). Debris objects in space refer to the collection of defunct objects orbiting the Earth. Examples of debris include non-operational satellites, rocket bodies, and fragments generated from explosions, collisions, or faulty payload assembly.

Loading next visibility...
Identifier
2622, 1966-111D
Orbit
LEO
Country
Flag of USUS
Related business
Manufacturer
ABL
Mission
Spacecraft
Bus & Motor
ALTAIR, Unknown motor
Mass
125 kg wet, 125 kg dry
Launch date (UTC)
1966-12-11 (59 years ago)
Launch vehicle
Unknown
Launch site
Air Force Western Test Range (AFWTR)
Object type
Payload
Rocket body
Debris
Shape & HBR
Unknown
Radar Cross Section
Medium (>0.1 m² and <1 m²)

Expand to show TLE details & history
Last TLE update: 7 hours ago

TLE from 7 hours ago
0 OV1-9 R/B
1 02622U 66111D   26119.55309472  .00000621  00000-0  24831-3 0  9991
2 02622  99.1144  62.1131 2220456 135.9277 244.1870 10.49851336239797
Epoch: 2026-04-29T13:16Z
TLE epoch observation values (Epoch: 2026-04-29T13:16:27.383Z)
Latitude
-0.00008°
Longitude
5.48661°
Altitude
3,587.3 km
Speed
5.897 km/s
True Right ascension
04h 08m 27s
True Declination
0° 00' 00"
Sunlit
Object was in daylight at epoch
Visualization orbit readout
Latitude
Unknown
Longitude
Unknown
Altitude
Unknown
Speed
Unknown
Apparent Right ascension
Unknown
Apparent Declination
Unknown
Sunlit
N/A
Visualization observer readout
Local Sidereal Time
03:42:58
Azimuth
Unknown
Elevation
Unknown
Doppler factor
Unknown
Orbital elements
Apogee altitude
4,385.228 km
Perigee altitude
473.823 km
Semi-major axis
8,807.663 km
Eccentricity
0.22205
Inclination
99.1144°
RAAN
62.1131°
Arg. of periapsis
135.9277°
True anomaly
224.16655°
Mean anomaly
244.187°
Eccentric anomaly
233.90666°
Mean motion
2.62574 °/min
Orbital period
137.1 mins
BSTAR
0.00024831
Loading maneuver chart data...
Computing Atmospheric mass density...
Loading historical data...
Loading historical data...
Loading historical data...
Loading historical data...
Loading historical data...
Loading historical data...
Loading historical data...
Other satellites on launch #111 in the year 1966 (1966-12-11 UTC)

Documentation

Showing up to 5 results
|